W4OCD Weather Reports


Display with metric or nautical units.
time (UTC)temp
F
wind
direction
speed
MPH
gust
MPH
rain 1hr
in
rain 24hr
in
rain mn
in
humidity
%
barometer
mb
20260906115613 74 197 0.0 0.0 0.00 0.01 0.01 99 1013.0
20260906115109 74 198 0.0 0.0 0.00 0.01 0.01 99 1013.0
20260906114608 74 170 0.0 0.0 0.00 0.01 0.01 99 1012.9
20260906114103 74 190 0.0 0.0 0.00 0.01 0.01 99 1013.1
20260906113603 74 205 0.0 0.0 0.00 0.01 0.01 99 1013.0
20260906113057 74 205 0.0 0.0 0.00 0.01 0.01 99 1013.0
20260906112552 74 196 0.0 0.0 0.00 0.01 0.01 99 1013.2
20260906112049 74 196 0.0 0.0 0.00 0.01 0.01 99 1013.0
20260906111548 74 174 0.0 0.0 0.00 0.01 0.01 99 1013.3
20260906111043 74 159 0.0 0.0 0.00 0.01 0.01 99 1013.2
20260906110543 74 145 0.0 0.0 0.00 0.01 0.01 99 1013.3
20260906110042 74 199 0.0 0.0 0.00 0.01 0.01 99 1013.2
20260906105537 75 155 0.0 0.0 0.00 0.01 0.01 99 1013.1
20260906105033 74 61 0.0 0.0 0.00 0.01 0.01 99 1013.2
20260906104532 74 62 0.0 0.0 0.00 0.01 0.01 99 1013.1
20260906104032 75 221 0.0 0.0 0.00 0.01 0.01 99 1012.9
20260906103530 74 203 0.0 0.0 0.00 0.01 0.01 99 1012.8
20260906103026 74 167 0.0 0.0 0.00 0.01 0.01 99 1012.7
20260906102526 74 167 0.0 0.0 0.00 0.01 0.01 99 1012.6
20260906102021 74 145 0.0 0.0 0.00 0.01 0.01 99 1012.7
20260906101515 74 66 0.0 0.0 0.00 0.01 0.01 99 1012.7
20260906101010 74 94 0.0 0.0 0.00 0.01 0.01 99 1012.6
20260906100506 74 266 0.0 0.0 0.00 0.01 0.01 99 1012.5
20260906100000 74 227 0.0 0.0 0.00 0.01 0.01 99 1012.6
20260906095455 74 216 0.0 0.0 0.00 0.01 0.01 99 1012.4
20260906094950 74 209 0.0 0.0 0.00 0.01 0.01 99 1012.5
20260906094449 74 210 0.0 0.0 0.00 0.01 0.01 99 1012.6
20260906093945 74 243 0.0 0.0 0.00 0.01 0.01 99 1012.5
20260906093441 74 252 0.0 0.0 0.00 0.01 0.01 99 1012.3
20260906092942 74 204 0.0 0.0 0.00 0.01 0.01 99 1012.5
20260906092442 74 197 0.0 0.0 0.00 0.01 0.01 99 1012.5
20260906091937 74 197 0.0 0.0 0.00 0.01 0.01 99 1012.5
20260906091433 74 189 0.0 0.0 0.00 0.01 0.01 99 1012.5
20260906090929 74 186 0.0 0.0 0.00 0.01 0.01 99 1012.4
20260906090424 74 160 0.0 0.0 0.00 0.01 0.01 99 1012.6
20260906085918 74 98 0.0 0.0 0.00 0.01 0.01 99 1012.6
20260906085412 74 138 0.0 0.0 0.00 0.01 0.01 99 1012.7
20260906084911 74 139 0.0 0.0 0.00 0.01 0.01 99 1012.4
20260906084407 74 138 0.0 0.0 0.00 0.01 0.01 99 1012.8
20260906083905 74 113 0.0 0.0 0.00 0.01 0.01 99 1012.3
20260906083401 74 60 0.0 0.0 0.00 0.01 0.01 99 1012.6
20260906082900 74 45 0.0 0.0 0.00 0.01 0.01 99 1012.4
20260906082355 74 42 0.0 0.0 0.00 0.01 0.01 99 1012.6
20260906081852 74 297 0.0 0.0 0.00 0.01 0.01 99 1012.3
20260906081347 74 189 0.0 0.0 0.00 0.01 0.01 99 1012.3
20260906080843 74 186 0.0 0.0 0.00 0.01 0.01 99 1012.5
20260906080339 74 184 0.0 0.0 0.00 0.01 0.01 99 1012.5
20260906075838 74 125 0.0 0.0 0.00 0.01 0.01 99 1012.3
20260906075333 74 125 0.0 0.0 0.00 0.01 0.01 99 1012.6
20260906074829 74 175 0.0 0.0 0.00 0.01 0.01 99 1012.8
20260906074328 75 170 0.0 0.0 0.00 0.01 0.01 99 1012.5
20260906073827 75 151 0.0 0.0 0.00 0.01 0.01 99 1012.5
20260906073322 75 65 0.0 0.0 0.00 0.01 0.01 99 1012.4
20260906072818 75 64 0.0 0.0 0.00 0.01 0.01 99 1012.5
20260906072314 75 61 0.0 0.0 0.00 0.01 0.01 99 1012.3
20260906071810 75 98 0.0 0.0 0.00 0.01 0.01 99 1012.3
20260906071310 75 69 0.0 0.0 0.00 0.01 0.01 99 1012.3
20260906070807 75 128 0.0 0.0 0.00 0.01 0.01 99 1012.2
20260906070302 75 173 0.0 0.0 0.00 0.01 0.01 99 1011.8
20260906065802 75 145 0.0 0.0 0.00 0.01 0.01 99 1011.8
20260906065257 75 162 0.0 0.0 0.00 0.01 0.01 99 1011.8
20260906064753 75 165 0.0 0.0 0.00 0.01 0.01 99 1012.0
20260906064249 75 120 0.0 0.0 0.00 0.01 0.01 99 1012.1
20260906063743 76 63 1.0 1.0 0.00 0.01 0.01 99 1012.2
20260906063239 76 80 3.0 3.0 0.00 0.01 0.01 98 1012.2
20260906062733 76 201 0.0 0.0 0.05 0.01 0.01 98 1012.1
20260906062227 76 267 3.0 5.0 0.05 0.01 0.01 98 1011.9
20260906061723 75 245 6.0 7.0 0.00 0.00 0.00 98 1012.3
20260906061220 75 229 1.0 2.0 0.00 0.00 0.00 98 1012.6
20260906060714 75 183 0.0 0.0 0.00 0.00 0.00 98 1012.8
20260906060212 76 166 0.0 0.0 0.00 0.00 0.00 98 1012.8
20260906055707 76 88 1.0 1.0 0.00 0.00 0.00 98 1012.9
20260906055203 76 52 3.0 3.0 0.00 0.00 0.00 98 1013.2
20260906054657 76 60 2.0 2.0 0.00 0.00 0.00 98 1013.1
20260906054152 76 66 0.0 0.0 0.00 0.00 0.00 98 1013.1
20260906053649 76 131 0.0 0.0 0.00 0.00 0.00 98 1012.7
20260906053143 76 138 0.0 0.0 0.00 0.00 0.00 98 1013.0
20260906052639 76 110 0.0 0.0 0.00 0.00 0.00 98 1013.0
20260906052136 76 195 0.0 0.0 0.00 0.00 0.00 98 1013.0
20260906051632 76 195 0.0 0.0 0.00 0.00 0.00 98 1012.9
20260906051131 75 170 0.0 0.0 0.00 0.00 0.00 98 1012.9
20260906050627 75 169 0.0 0.0 0.00 0.00 0.00 97 1012.9
20260906050122 76 170 0.0 0.0 0.00 0.00 0.00 97 1012.9
20260906045620 76 170 0.0 0.0 0.00 0.00 0.00 97 1012.9
20260906045116 76 107 0.0 0.0 0.00 0.00 0.00 97 1012.8
20260906044612 76 141 0.0 0.0 0.00 0.00 0.00 97 1012.9
20260906044107 76 141 0.0 0.0 0.00 0.00 0.00 97 1013.0
20260906043603 76 107 0.0 0.0 0.00 0.00 0.00 96 1012.9
20260906043058 77 108 0.0 0.0 0.00 0.00 0.00 96 1013.1
20260906042557 77 106 0.0 0.0 0.00 0.00 0.00 96 1013.1
20260906042052 77 131 0.0 0.0 0.00 0.00 0.00 96 1013.0
20260906041549 77 137 0.0 0.0 0.00 0.00 0.00 96 1013.2
20260906041043 77 142 0.0 0.0 0.00 0.00 0.00 96 1013.3
20260906040538 77 151 0.0 0.0 0.00 0.00 0.00 96 1013.1
20260906040033 77 154 0.0 0.0 0.00 0.00 0.00 96 1013.0
20260906035523 77 130 0.0 0.0 0.00 0.00 0.00 96 1013.1
20260906035019 77 131 0.0 0.0 0.00 0.00 0.00 96 1013.1
20260906034518 77 186 0.0 0.0 0.00 0.00 0.00 96 1013.0
20260906034014 77 186 0.0 0.0 0.00 0.00 0.00 96 1013.0
20260906033508 77 186 0.0 0.0 0.00 0.00 0.00 96 1012.9
20260906033004 77 186 0.0 0.0 0.00 0.00 0.00 96 1013.0
20260906032455 77 186 0.0 0.0 0.00 0.00 0.00 96 1013.1
20260906031954 77 186 0.0 0.0 0.00 0.00 0.00 96 1013.1
20260906031450 77 178 0.0 0.0 0.00 0.00 0.00 96 1013.3
20260906030945 77 196 0.0 0.0 0.00 0.00 0.00 96 1013.3
20260906030440 77 200 0.0 0.0 0.00 0.00 0.00 95 1013.1
20260906025934 77 228 0.0 0.0 0.00 0.00 0.00 95 1013.1
20260906025428 77 270 0.0 0.0 0.00 0.00 0.00 95 1013.1
20260906024927 77 169 0.0 0.0 0.00 0.00 0.00 94 1013.4
20260906024426 78 169 0.0 0.0 0.00 0.00 0.00 94 1013.3
20260906023922 78 153 0.0 0.0 0.00 0.00 0.00 94 1013.3
20260906023418 78 122 0.0 0.0 0.00 0.00 0.00 93 1013.1
20260906022918 78 156 0.0 0.0 0.00 0.00 0.00 93 1012.9
20260906022413 78 156 0.0 0.0 0.00 0.00 0.00 93 1012.8
20260906021909 78 156 0.0 0.0 0.00 0.00 0.00 93 1012.7
20260906021408 78 156 0.0 0.0 0.00 0.00 0.00 93 1012.6
20260906020903 78 156 0.0 0.0 0.00 0.00 0.00 93 1012.6
20260906020357 79 157 0.0 0.0 0.00 0.00 0.00 92 1012.4
20260906015852 79 158 0.0 0.0 0.00 0.00 0.00 92 1012.4
20260906015351 79 152 0.0 0.0 0.00 0.00 0.00 92 1012.5
20260906014850 79 153 0.0 0.0 0.00 0.00 0.00 91 1012.3
20260906014345 79 126 0.0 0.0 0.00 0.00 0.00 91 1012.3
20260906013841 80 170 0.0 0.0 0.00 0.00 0.00 90 1012.4
20260906013336 79 170 0.0 0.0 0.00 0.00 0.00 91 1012.1
20260906012832 80 169 0.0 0.0 0.00 0.00 0.00 91 1012.3
20260906012327 80 182 0.0 0.0 0.00 0.00 0.00 90 1012.1
20260906011827 80 228 0.0 0.0 0.00 0.00 0.00 89 1012.0
20260906011322 80 228 0.0 0.0 0.00 0.00 0.00 89 1012.1
20260906010818 80 225 0.0 0.0 0.00 0.00 0.00 89 1011.8
20260906010314 80 228 0.0 0.0 0.00 0.00 0.00 89 1011.8
20260906005809 80 228 0.0 0.0 0.00 0.00 0.00 89 1011.7
20260906005307 80 224 0.0 0.0 0.00 0.00 0.00 89 1011.8
20260906004806 81 239 0.0 1.0 0.00 0.00 0.00 87 1011.7
20260906004301 81 247 0.0 0.0 0.00 0.00 0.00 87 1011.7
20260906003756 81 316 1.0 2.0 0.00 0.00 0.00 87 1011.7
20260906003252 82 234 2.0 2.0 0.00 0.00 0.00 87 1011.6
20260906002747 81 297 2.0 2.0 0.00 0.00 0.00 87 1011.7
20260906002247 82 256 2.0 2.0 0.00 0.00 0.00 87 1011.6
20260906001742 82 235 1.0 1.0 0.00 0.00 0.00 87 1011.6
20260906001237 81 278 2.0 2.0 0.00 0.00 0.00 87 1011.7
20260906000733 82 234 4.0 5.0 0.00 0.00 0.00 86 1011.8
20260906000234 82 222 3.0 3.0 0.00 0.00 0.00 86 1011.7
20260905235733 82 229 3.0 5.0 0.00 0.00 0.00 85 1011.7
20260905235227 82 243 3.0 3.0 0.00 0.00 0.00 85 1011.9
20260905234723 83 227 1.0 1.0 0.00 0.00 0.00 85 1011.8
20260905234218 83 226 5.0 6.0 0.00 0.00 0.00 84 1011.8
20260905233713 83 228 3.0 3.0 0.00 0.00 0.00 83 1011.7
20260905233212 84 229 5.0 6.0 0.00 0.00 0.00 83 1011.9
20260905232707 84 234 6.0 7.0 0.00 0.00 0.00 82 1012.0
20260905232203 84 270 6.0 7.0 0.00 0.00 0.00 82 1011.9
20260905231659 84 237 4.0 5.0 0.00 0.00 0.00 82 1012.0
20260905231154 84 256 4.0 5.0 0.00 0.00 0.00 83 1011.9
20260905230650 84 246 4.0 6.0 0.00 0.00 0.00 83 1011.7
20260905230148 84 260 7.0 8.0 0.00 0.00 0.00 82 1011.7
20260905225647 85 245 5.0 6.0 0.00 0.00 0.00 81 1012.0
20260905225142 86 240 6.0 7.0 0.00 0.00 0.00 80 1011.9
20260905224641 87 261 5.0 5.0 0.00 0.00 0.00 79 1011.9
20260905224136 87 292 8.0 9.0 0.00 0.00 0.00 78 1011.9
20260905223633 87 260 9.0 9.0 0.00 0.00 0.00 79 1011.8
20260905223130 88 225 6.0 7.0 0.00 0.00 0.00 76 1011.7
20260905222625 88 208 5.0 6.0 0.00 0.00 0.00 76 1011.9
20260905222120 89 198 4.0 5.0 0.00 0.00 0.00 74 1011.9
20260905221615 88 234 6.0 7.0 0.00 0.00 0.00 75 1011.9
20260905221112 90 245 3.0 3.0 0.00 0.00 0.00 72 1012.0
20260905220607 89 284 7.0 8.0 0.00 0.00 0.00 73 1011.9
20260905215602 89 228 5.0 6.0 0.00 0.00 0.00 76 1011.8
20260905215058 89 244 3.0 3.0 0.00 0.00 0.00 74 1011.8
20260905214554 88 213 3.0 3.0 0.00 0.00 0.00 75 1011.8
20260905214049 88 248 6.0 9.0 0.00 0.00 0.00 74 1011.8
20260905213544 88 243 4.0 5.0 0.00 0.00 0.00 75 1012.0
20260905213039 88 231 3.0 5.0 0.00 0.00 0.00 73 1011.9
20260905212534 89 269 7.0 8.0 0.00 0.00 0.00 74 1011.9
20260905212034 91 181 3.0 5.0 0.00 0.00 0.00 69 1011.9
20260905211529 91 198 3.0 5.0 0.00 0.00 0.00 69 1012.0
20260905211025 90 188 3.0 3.0 0.00 0.00 0.00 71 1012.3
20260905210521 89 218 2.0 3.0 0.00 0.00 0.00 71 1012.2
20260905210020 88 236 7.0 9.0 0.00 0.00 0.00 75 1012.3
20260905205514 89 205 4.0 6.0 0.00 0.00 0.00 73 1012.1
20260905205013 89 272 5.0 7.0 0.00 0.00 0.00 70 1012.1
20260905204509 89 349 1.0 2.0 0.00 0.00 0.00 71 1012.1
20260905204009 90 202 5.0 7.0 0.00 0.00 0.00 72 1012.4
20260905203504 91 266 7.0 7.0 0.00 0.00 0.00 70 1012.6
20260905202959 90 229 3.0 3.0 0.00 0.00 0.00 69 1012.2
20260905202454 89 250 6.0 8.0 0.00 0.00 0.00 71 1012.5
20260905201949 89 255 7.0 8.0 0.00 0.00 0.00 70 1012.8
20260905201445 88 232 3.0 5.0 0.00 0.00 0.00 73 1012.7
20260905200944 89 234 3.0 3.0 0.00 0.00 0.00 72 1012.9
20260905200440 89 229 5.0 6.0 0.00 0.00 0.00 71 1012.8
20260905195939 88 239 5.0 7.0 0.00 0.00 0.00 72 1012.9
20260905195434 91 216 5.0 8.0 0.00 0.00 0.00 71 1012.9
20260905194930 89 247 5.0 6.0 0.00 0.00 0.00 69 1012.9
20260905194428 91 177 6.0 7.0 0.00 0.00 0.00 71 1012.9
20260905193923 88 194 3.0 3.0 0.00 0.00 0.00 72 1012.8
20260905193418 89 172 3.0 3.0 0.00 0.00 0.00 72 1012.8
20260905192913 88 281 3.0 5.0 0.00 0.00 0.00 72 1012.8
20260905192409 89 210 3.0 3.0 0.00 0.00 0.00 71 1013.2
20260905191909 90 218 3.0 3.0 0.00 0.00 0.00 71 1012.9
20260905191408 88 246 6.0 8.0 0.00 0.00 0.00 72 1012.9
20260905190902 88 174 3.0 5.0 0.00 0.00 0.00 74 1013.1
20260905190354 88 219 7.0 8.0 0.00 0.00 0.00 74 1013.0
20260905185853 87 178 4.0 5.0 0.00 0.00 0.00 76 1013.4
20260905185349 89 219 3.0 3.0 0.00 0.00 0.00 72 1013.3
20260905184848 89 215 3.0 3.0 0.00 0.00 0.00 72 1013.3
20260905184348 88 178 4.0 5.0 0.00 0.00 0.00 72 1013.4
20260905183846 87 189 4.0 5.0 0.00 0.00 0.00 74 1013.4
20260905183341 87 208 4.0 6.0 0.00 0.00 0.00 74 1013.7
20260905182836 87 191 5.0 6.0 0.00 0.00 0.00 76 1013.7
20260905182335 87 207 3.0 5.0 0.00 0.00 0.00 76 1014.0
20260905181831 87 228 6.0 8.0 0.00 0.00 0.00 75 1014.1
20260905181331 87 235 6.0 7.0 0.00 0.00 0.00 77 1014.3
20260905180830 87 218 7.0 8.0 0.00 0.00 0.00 71 1014.2
20260905180325 88 194 5.0 6.0 0.00 0.00 0.00 74 1014.4
20260905175820 88 209 3.0 3.0 0.00 0.00 0.00 74 1014.5
20260905175314 88 247 11.0 11.0 0.00 0.00 0.00 76 1014.3
20260905174810 86 230 5.0 6.0 0.00 0.00 0.00 77 1014.5
20260905174306 86 219 5.0 7.0 0.00 0.00 0.00 75 1014.5
20260905173801 86 232 9.0 10.0 0.00 0.00 0.00 77 1014.8
20260905173257 86 215 7.0 8.0 0.00 0.00 0.00 77 1014.8
20260905172756 84 239 8.0 9.0 0.00 0.00 0.00 80 1014.8
20260905172255 85 222 7.0 9.0 0.00 0.00 0.00 78 1015.0
20260905171751 85 203 6.0 8.0 0.00 0.00 0.00 79 1015.0
20260905171248 84 225 7.0 8.0 0.00 0.00 0.00 82 1015.1
20260905170744 83 186 5.0 7.0 0.00 0.00 0.00 82 1015.0
20260905170239 82 202 2.0 3.0 0.00 0.00 0.00 83 1015.1
20260905165738 82 226 8.0 8.0 0.00 0.00 0.00 84 1015.2
20260905165234 83 220 5.0 6.0 0.00 0.00 0.00 83 1015.0
20260905164734 86 222 9.0 11.0 0.00 0.00 0.00 81 1014.9
20260905164228 85 188 7.0 8.0 0.00 0.00 0.00 81 1015.1
20260905163725 86 185 8.0 13.0 0.00 0.00 0.00 76 1015.1
20260905163221 85 224 7.0 8.0 0.00 0.00 0.00 80 1015.1
20260905162716 84 221 7.0 8.0 0.00 0.00 0.00 80 1015.2
20260905162210 84 233 7.0 11.0 0.00 0.00 0.00 82 1015.5
20260905161705 86 210 6.0 9.0 0.00 0.00 0.00 79 1015.4
20260905161204 86 249 12.0 14.0 0.00 0.00 0.00 78 1015.5
20260905160702 87 233 7.0 8.0 0.00 0.00 0.00 76 1015.4
20260905160201 86 246 5.0 7.0 0.00 0.00 0.00 79 1015.4
20260905155656 86 220 3.0 3.0 0.00 0.00 0.00 77 1015.3
20260905155155 86 235 5.0 6.0 0.00 0.00 0.00 78 1015.1
20260905154650 86 183 5.0 6.0 0.00 0.00 0.00 78 1015.0
20260905154145 86 215 5.0 6.0 0.00 0.00 0.00 78 1014.9
20260905153641 87 186 4.0 5.0 0.00 0.00 0.00 76 1015.1
20260905153137 87 216 7.0 10.0 0.00 0.00 0.00 74 1014.8
20260905152631 87 182 1.0 1.0 0.00 0.00 0.00 74 1014.9
20260905152126 86 158 2.0 2.0 0.00 0.00 0.00 75 1014.9
20260905151621 86 212 3.0 3.0 0.00 0.00 0.00 75 1014.8
20260905151117 87 181 0.0 1.0 0.00 0.00 0.00 74 1014.9
20260905150612 86 308 2.0 2.0 0.00 0.00 0.00 76 1015.0
20260905150110 86 330 3.0 5.0 0.00 0.00 0.00 76 1014.8
20260905145609 86 252 4.0 5.0 0.00 0.00 0.00 76 1014.8
20260905145108 85 211 1.0 1.0 0.00 0.00 0.00 78 1014.9
20260905144603 84 211 2.0 2.0 0.00 0.00 0.00 79 1014.5
20260905144102 85 193 1.0 1.0 0.00 0.00 0.00 78 1014.8
20260905143602 84 203 2.0 2.0 0.00 0.00 0.00 79 1014.7
20260905143057 84 192 1.0 2.0 0.00 0.00 0.00 80 1014.8
20260905142556 84 122 0.0 0.0 0.00 0.00 0.00 81 1014.8
20260905142056 83 45 2.0 2.0 0.00 0.00 0.00 81 1014.8
20260905141550 83 111 0.0 0.0 0.00 0.00 0.00 82 1014.8
20260905141047 83 101 0.0 0.0 0.00 0.00 0.00 81 1014.8
20260905140542 84 129 0.0 0.0 0.00 0.00 0.00 81 1014.8
20260905140041 83 139 0.0 0.0 0.00 0.00 0.00 82 1014.9
20260905135537 83 205 0.0 0.0 0.00 0.00 0.00 83 1014.7
20260905135036 83 279 1.0 1.0 0.00 0.00 0.00 81 1014.8
20260905134531 82 133 0.0 0.0 0.00 0.00 0.00 83 1014.8
20260905134030 82 101 1.0 2.0 0.00 0.00 0.00 84 1014.5
20260905133526 82 82 2.0 3.0 0.00 0.00 0.00 84 1014.7
20260905133025 82 146 0.0 0.0 0.00 0.00 0.00 84 1014.7
20260905132525 80 52 1.0 1.0 0.00 0.00 0.00 88 1014.6
20260905132020 80 96 0.0 0.0 0.00 0.00 0.00 89 1014.7
20260905131515 79 98 0.0 0.0 0.00 0.00 0.00 90 1014.8
20260905131010 78 107 0.0 0.0 0.00 0.00 0.00 91 1014.9
20260905130509 78 110 0.0 0.0 0.00 0.00 0.00 91 1014.8
20260905130005 78 84 0.0 0.0 0.00 0.00 0.00 91 1015.0
20260905125459 78 114 1.0 1.0 0.00 0.00 0.00 92 1015.0
20260905124954 77 92 1.0 1.0 0.00 0.00 0.00 92 1014.9
20260905124451 77 100 0.0 0.0 0.00 0.00 0.00 93 1014.9
20260905123946 77 154 0.0 0.0 0.00 0.00 0.00 93 1014.9
20260905123442 77 127 0.0 0.0 0.00 0.00 0.00 93 1014.8
20260905122937 77 136 0.0 0.0 0.00 0.00 0.00 93 1014.9
20260905122437 76 141 0.0 0.0 0.00 0.00 0.00 94 1014.6
20260905121932 76 88 0.0 0.0 0.00 0.00 0.00 94 1014.5
20260905121428 76 148 0.0 0.0 0.00 0.00 0.00 94 1014.5
20260905120927 76 103 0.0 0.0 0.00 0.00 0.00 95 1014.4
20260905120422 75 101 0.0 0.0 0.00 0.00 0.00 96 1014.8
20260905115916 75 76 0.0 0.0 0.00 0.00 0.00 96 1014.7